RH
98 97 97 98 96 97 96 94 89 88 88 99 94 92 89 98 99 94 98 96 100 99 100 94 54 65 70 82 58 58 46 79 62 71 58 50 44 42 48 38 35 41 40 34 34 35 36
98 98 97 98 92 95 94 87 83 84 84 86 95 95 91 97 94 100 98 96 99 99 100 90 66 70 81 61 53 59 56 78 71 76 62 57 51 48 48 46 48 42 40 40 38 37 39
98 94 93 92 87 94 97 86 86 82 86 80 90 94 90 94 93 86 100 99 100 97 99 82 74 64 84 62 51 57 60 60 66 66 62 56 54 54 51 57 47 48 58 52 47 42 45
88 92 90 92 97 85 95 97 87 80 85 77 80 87 70 72 64 63 92 100 98 100 94 92 80 90 73 66 67 56 54 51 55 62 63 63 65 63 59 55 58 66 67 80 50 47 44
94 92 97 91 88 94 92 98 98 78 84 82 73 88 75 72 74 72 92 100 100 94 75 68 86 90 65 63 49 47 46 52 60 60 64 63 62 60 62 78 89 74 92 76 61 41 44
100 91 98 95 88 94 91 95 98 82 84 84 73 64 76 71 62 98 99 100 98 85 87 98 92 87 69 47 56 59 60 61 64 66 65 72 76 82 76 89 90 81 82 87 90 58 60
100 94 91 92 89 96 92 99 85 81 82 75 70 62 64 64 69 80 100 97 93 96 99 84 72 49 47 54 56 65 69 80 76 67 77 71 95 95 73 74 71 71 76 80 71 57 78
99 97 86 96 93 90 93 91 95 94 78 78 73 68 62 57 74 72 99 96 93 99 93 85 64 52 54 59 63 67 77 69 65 72 62 76 98 58 52 79 81 88 83 87 72 66 75
98 96 86 98 93 94 96 98 90 98 85 77 73 68 64 62 67 78 84 97 98 98 94 78 70 58 57 63 54 69 74 62 60 67 66 89 59 70 86 92 98 91 79 91 96 90 76
95 91 92 96 92 85 96 97 89 91 85 85 76 68 68 66 73 95 100 100 94 90 100 79 67 61 66 64 63 70 74 76 69 64 79 85 61 60 73 99 98 99 72 76 100 95 93
92 89 95 96 96 98 89 93 92 94 78 73 74 67 66 74 97 91 98 99 97 86 98 68 62 66 66 66 77 82 78 79 78 74 93 80 84 87 98 94 92 96 73 92 90 93 86
87 97 99 98 99 92 95 87 86 76 79 79 96 91 75 80 76 88 74 100 96 99 97 73 68 67 70 64 68 86 85 83 83 85 94 93 71 79 72 66 72 73 81 90 95 99 87
90 100 100 97 94 93 95 88 89 92 96 98 99 98 90 88 94 97 80 100 99 99 63 74 68 65 60 72 79 74 75 84 96 100 95 77 86 78 80 93 75 84 96 99 98 98 98
92 92 91 86 87 91 94 99 99 100 100 94 100 97 97 93 98 95 98 100 98 69 66 49 59 63 70 64 75 79 79 91 72 72 100 100 98 96 85 91 96 85 97 99 97 97 98
96 98 96 91 86 83 100 99 98 100 98 92 94 100 99 92 93 99 94 98 99 77 51 56 60 72 74 61 68 77 77 90 69 84 100 100 100 84 83 72 60 70 93 73 100 66 92
99 98 99 93 82 78 98 100 96 98 99 97 99 98 99 88 85 99 97 100 77 52 44 49 61 52 64 60 74 84 83 72 74 77 78 90 100 78 62 70 57 58 46 73 88 97 95
100 99 100 88 84 76 99 99 83 86 95 86 83 94 99 89 98 98 100 100 68 52 48 50 45 54 52 60 91 76 87 75 67 79 74 66 85 63 58 63 67 59 57 48 49 62 75
86 100 98 86 84 75 97 100 90 74 76 77 85 97 99 97 96 98 100 84 47 50 48 48 43 50 57 51 72 69 78 80 54 54 56 50 65 80 59 48 47 59 45 41 77 61 64
85 93 95 86 82 82 88 92 88 81 75 88 96 100 100 97 100 100 88 54 55 48 53 48 49 46 43 54 83 62 60 50 52 53 61 54 62 91 68 59 50 47 41 45 43 64 58
95 86 87 88 82 93 84 84 80 74 67 78 88 99 95 98 92 93 57 53 61 55 52 46 47 42 45 51 48 56 62 52 51 52 53 60 59 72 89 74 61 60 49 45 59 79 62
87 92 85 91 89 82 82 77 78 69 62 67 83 91 92 99 74 57 43 49 59 57 46 42 43 41 43 51 54 55 50 56 46 47 52 52 72 70 49 50 53 54 53 52 56 43 62
73 90 92 85 75 83 82 74 79 78 63 69 82 86 82 67 74 50 48 54 55 57 54 46 49 48 48 56 51 53 43 52 56 41 46 47 75 65 62 46 51 59 56 55 56 51 44
66 88 91 60 83 76 66 70 86 81 66 70 68 65 59 65 60 47 50 52 59 51 53 55 50 58 66 59 46 42 41 41 43 50 51 54 74 89 78 48 47 64 56 58 55 55 55
76 90 72 85 81 72 66 63 79 78 69 72 66 67 54 66 61 53 49 56 63 59 62 60 54 54 59 56 49 42 41 41 42 44 40 48 60 86 88 68 75 48 45 49 53 50 50
54 50 66 89 78 80 68 64 70 70 63 54 61 67 54 65 52 49 49 56 57 60 64 68 64 61 58 56 54 55 53 50 48 47 49 46 50 71 85 65 43 46 49 53 62 55 48
58 43 78 91 89 92 72 73 69 65 63 60 58 62 60 61 76 73 54 48 54 59 61 62 60 52 57 56 48 54 68 50 53 46 41 45 44 59 58 58 45 48 49 47 48 64 48
49 39 82 94 99 87 82 77 74 67 65 62 65 62 66 74 77 76 68 70 59 55 66 59 58 57 55 61 58 64 66 51 59 51 57 59 58 63 58 64 52 49 48 49 57 64 47
61 37 80 78 84 84 88 77 67 64 63 58 64 68 64 71 77 76 68 68 64 63 63 61 63 62 62 58 60 57 57 55 57 46 51 59 68 61 59 62 67 47 50 52 54 51 51
57 39 80 82 67 83 74 69 68 63 62 58 57 64 63 61 71 68 67 65 64 65 65 59 61 57 65 66 58 55 57 54 51 54 50 61 57 63 53 60 46 45 52 55 51 52 56
Wind_Speed
26 25 25 25 27 26 27 26 22 24 22 21 20 21 23 24 21 20 21 20 22 25 19 15 12 6 5 5 6 9 7 8 6 4 3 3 6 9 11 10 15 14 15 22 23 24 23
27 26 27 25 30 28 27 27 24 23 19 19 21 23 24 25 25 24 17 17 26 25 20 14 11 6 7 7 7 5 7 8 7 4 4 4 4 8 10 14 13 18 22 21 24 23 23
27 29 27 27 28 28 28 28 25 24 21 20 21 21 23 22 26 16 13 15 27 24 16 10 9 7 7 7 5 6 8 8 6 7 7 7 6 6 8 11 10 14 15 14 16 22 19
27 28 31 26 27 27 28 28 28 25 20 21 20 21 23 23 25 18 11 25 20 20 11 9 8 7 5 9 10 9 8 7 7 7 8 9 7 10 15 14 17 14 12 11 11 15 26
32 27 30 30 24 27 29 28 27 26 22 20 20 21 21 21 19 15 9 18 16 12 8 9 11 7 3 7 10 9 9 7 5 7 7 8 8 13 13 9 7 6 9 15 17 16 14
32 31 28 31 26 24 28 27 26 26 23 20 20 21 20 17 17 12 11 16 14 8 13 10 5 4 8 5 10 8 8 7 6 4 6 9 5 5 4 7 9 5 8 9 11 8 15
32 36 28 31 28 28 29 26 26 26 24 20 19 18 20 14 16 10 15 10 13 7 15 9 9 1 15 9 8 6 8 5 4 3 4 8 4 9 13 15 17 14 17 20 17 18 8
31 36 29 29 27 28 27 28 30 25 21 20 18 16 18 14 15 13 9 7 5 3 5 17 3 6 7 6 7 9 7 5 7 6 9 5 8 13 15 15 16 16 18 19 16 16 10
34 36 27 29 28 29 29 29 24 26 21 19 18 16 14 13 14 11 13 10 2 2 2 7 12 9 5 8 4 13 8 4 4 4 10 8 8 10 12 14 12 16 17 15 12 6 10
34 36 27 28 30 33 30 30 28 24 22 20 17 16 13 11 9 4 11 5 5 1 1 8 9 7 8 6 3 8 5 2 1 4 4 8 11 12 11 11 7 10 13 17 10 7 3
33 30 27 31 30 33 32 30 28 24 21 18 15 14 12 9 4 3 1 4 7 4 3 9 10 11 10 5 11 3 4 2 2 6 1 4 8 9 8 6 7 6 1 10 5 4 4
31 26 29 32 33 33 32 31 29 25 23 19 20 17 12 10 10 5 9 1 12 1 3 3 6 9 8 6 6 6 2 2 4 5 7 11 11 6 4 10 8 5 1 2 1 1 3
27 28 31 32 33 34 35 34 31 29 27 28 23 15 17 7 3 5 1 11 1 4 3 5 7 10 10 7 5 3 3 4 2 3 3 5 5 3 4 6 3 7 6 2 4 1 3
27 27 31 33 34 36 38 43 40 29 17 13 18 19 17 13 4 9 15 2 3 7 3 4 12 11 5 7 3 4 3 2 9 5 3 3 2 3 2 3 4 2 5 2 3 3 3
27 28 30 33 36 38 42 27 28 28 24 7 18 29 20 17 9 9 6 1 5 3 4 9 13 4 3 6 4 4 2 2 2 4 2 3 2 4 11 11 4 3 2 4 3 7 2
28 29 31 32 35 37 31 34 25 27 32 26 36 27 18 14 9 11 1 3 1 4 4 13 3 2 6 6 5 4 3 3 2 3 4 0 0 5 4 5 5 4 7 3 2 2 3
28 28 31 29 32 32 27 32 22 22 26 33 36 14 12 13 13 6 1 3 3 5 4 4 6 6 2 8 3 4 2 1 3 4 8 6 3 1 5 3 4 3 4 3 2 2 1
29 29 29 28 30 27 21 27 19 18 23 31 26 6 13 16 3 1 2 3 4 3 6 4 6 11 4 4 5 2 2 4 3 5 2 1 3 2 0 2 3 4 5 3 3 5 4
27 29 27 28 27 23 17 20 17 20 15 20 13 12 17 9 1 2 5 7 9 4 8 4 4 5 2 4 3 6 3 2 3 2 4 5 3 2 1 2 2 4 9 8 2 3 7
25 27 26 28 23 21 17 14 14 14 14 16 7 3 2 3 4 5 6 6 4 7 8 6 3 2 3 2 5 5 3 1 1 2 5 4 4 5 3 2 4 6 10 11 5 4 4
25 26 26 27 24 20 19 13 10 5 9 12 7 3 4 2 2 2 1 8 10 5 4 5 3 4 4 5 7 5 4 5 3 2 3 3 3 5 4 4 5 6 7 10 10 7 6
25 25 27 26 23 22 18 8 8 5 8 15 6 5 4 3 3 1 2 8 10 6 8 8 7 12 12 11 9 5 1 5 4 2 3 3 1 3 3 6 7 6 10 8 8 8 7
23 23 26 22 22 21 15 11 13 10 13 9 18 11 4 2 2 6 6 8 7 2 7 12 7 9 8 8 9 7 9 7 4 4 4 3 2 3 1 4 4 3 5 6 4 6 4
19 22 22 21 19 16 11 6 14 14 15 14 12 5 4 4 3 3 8 10 10 12 5 11 14 5 0 8 4 3 6 9 11 7 9 1 3 2 2 2 3 2 3 2 4 3 4
18 20 18 18 18 14 8 9 6 9 7 10 8 4 8 4 9 7 7 6 10 12 5 7 7 4 6 7 2 2 2 2 4 4 6 5 2 2 2 1 4 3 2 3 4 3 4
17 15 15 14 17 10 12 10 7 7 4 5 9 7 8 5 2 0 3 5 3 4 3 2 6 6 5 2 1 3 3 3 3 1 2 3 2 1 3 1 2 1 3 2 3 1 4
14 11 11 11 12 6 10 7 7 9 6 11 9 8 6 8 1 3 2 3 3 3 3 1 2 3 5 3 3 3 1 1 2 4 4 3 2 1 2 1 1 4 3 1 1 4 3
11 6 7 8 9 6 6 7 9 8 9 9 7 8 9 6 4 4 4 2 1 3 0 2 2 2 3 2 2 1 2 1 2 1 3 2 2 1 2 1 4 6 2 0 2 2 3
8 3 4 4 7 4 6 7 11 11 7 3 8 7 13 3 5 6 6 4 3 3 2 2 1 3 5 2 1 1 2 1 1 2 0 2 2 1 1 2 1 8 3 4 3 2 2
Wind_Direction
332 333 330 328 324 325 322 317 310 310 310 315 324 319 313 317 318 282 263 238 232 248 241 251 257 245 183 231 249 197 207 168 163 158 205 245 268 277 263 271 279 264 263 270 273 273 275
332 328 328 322 323 323 320 313 314 314 313 312 316 320 319 318 319 314 254 248 217 238 237 248 236 208 181 230 158 196 189 179 174 176 208 225 258 296 304 289 286 294 295 297 296 294 293
329 326 321 322 328 322 320 320 321 315 314 314 319 316 319 323 326 303 270 220 211 233 234 228 220 178 229 223 157 196 182 181 190 208 231 239 260 271 295 315 308 307 287 283 269 272 273
331 326 320 314 323 324 321 319 322 322 314 313 314 319 321 325 330 299 267 197 214 219 202 199 182 152 233 219 198 210 197 190 201 212 231 247 266 287 278 275 283 291 286 284 282 254 253
340 329 322 322 315 320 322 317 319 320 319 314 312 315 320 326 338 338 232 197 193 195 164 159 151 176 239 231 214 195 196 204 202 233 245 257 259 260 274 269 275 229 271 264 278 258 245
336 335 323 323 319 321 324 316 318 317 320 314 311 310 312 322 329 350 177 164 140 138 127 138 163 197 214 203 167 166 188 190 204 232 266 248 253 253 225 224 244 249 251 276 277 282 288
335 338 326 324 330 324 319 316 312 317 315 309 305 306 309 315 316 327 176 153 108 109 189 183 187 130 134 144 162 179 180 151 163 223 224 198 204 223 230 229 244 261 268 273 275 279 292
333 334 330 321 325 322 315 313 316 314 311 303 300 301 303 305 300 303 226 157 173 220 199 219 185 161 137 177 166 166 167 157 182 223 219 230 243 239 247 274 258 248 260 269 280 270 256
337 330 329 325 326 320 320 314 311 310 306 304 298 294 294 306 299 312 237 223 3 176 10 184 193 197 191 190 199 163 169 177 225 284 283 229 245 185 239 258 262 265 260 266 266 301 239
345 330 330 329 325 326 323 328 328 310 303 297 294 286 285 296 303 298 203 264 204 160 286 139 189 201 170 187 124 143 166 143 193 291 317 268 275 269 264 265 244 269 241 248 263 210 202
337 333 333 329 332 330 328 323 319 308 302 293 284 269 273 261 259 331 261 16 176 185 216 144 128 148 169 179 141 128 164 105 250 279 307 268 282 268 259 253 223 243 159 161 231 210 149
339 340 336 335 336 333 329 325 318 309 300 285 267 251 243 250 239 247 278 111 154 207 204 118 125 165 166 179 131 129 107 138 261 285 226 258 277 294 296 297 287 232 217 228 185 235 179
343 342 339 339 338 335 330 323 312 301 290 279 258 234 214 193 177 192 243 148 190 250 207 149 170 167 170 154 125 137 153 189 234 270 247 274 227 314 271 302 229 208 277 219 195 130 73
346 345 345 344 343 341 335 331 327 311 321 295 244 209 191 178 163 138 147 97 248 93 110 187 147 149 122 150 74 136 230 267 224 238 281 315 293 325 46 240 326 245 209 286 320 89 96
346 347 346 349 349 349 351 21 25 21 6 349 151 172 175 166 154 160 106 186 6 100 151 148 144 124 133 134 113 190 225 244 84 48 298 331 348 273 227 256 292 303 30 258 294 113 101
345 348 351 352 357 357 17 15 27 34 49 107 131 125 143 166 161 157 104 274 23 321 198 165 119 194 127 155 159 174 165 339 347 127 172 232 26 269 300 321 234 241 302 11 262 59 66
348 351 352 356 359 3 16 18 44 51 78 99 107 88 124 173 156 114 337 21 334 333 70 336 68 114 118 127 203 158 60 265 216 242 220 253 232 237 217 14 357 320 325 278 258 137 101
352 350 354 358 358 360 9 23 44 58 99 99 87 77 139 154 107 79 294 205 158 66 52 43 19 61 57 69 50 111 122 228 292 267 298 72 289 16 9 159 248 274 317 339 63 339 19
352 352 355 355 356 1 10 25 45 49 85 90 80 76 137 162 94 253 248 107 46 55 26 35 65 28 330 116 103 130 135 333 332 337 1 348 352 319 159 290 315 10 6 360 14 14 13
349 352 353 353 355 360 12 16 30 53 71 85 89 103 119 359 101 243 135 100 112 44 57 59 77 213 180 101 118 131 127 24 329 17 297 301 34 52 97 166 272 9 15 19 50 50 76
343 352 354 354 355 1 2 358 29 33 63 81 65 88 160 170 207 197 205 82 68 72 82 8 63 27 5 97 94 96 143 197 158 235 251 38 69 29 64 80 46 34 31 23 31 20 77
341 353 354 353 355 359 10 23 46 29 91 108 115 138 169 89 329 186 13 63 77 46 2 63 62 55 48 45 52 53 8 4 27 12 24 359 90 31 39 20 76 66 21 30 22 6 71
342 354 352 359 359 2 37 63 41 87 123 99 111 126 124 192 227 94 60 49 51 2 30 30 353 85 59 15 27 64 81 84 76 15 22 39 121 31 339 352 338 359 8 16 64 35 348
345 353 358 2 8 4 48 82 57 93 112 141 138 139 147 93 69 80 83 64 47 43 86 20 16 96 76 322 314 78 76 78 51 33 18 57 102 102 265 339 39 200 60 349 323 27 52
347 353 5 12 15 19 86 115 83 65 78 137 148 88 96 118 120 100 93 98 107 76 70 57 38 66 333 320 287 244 220 256 73 40 7 11 313 53 79 63 158 156 87 15 33 85 53
341 356 9 21 28 47 105 112 95 42 46 132 157 109 112 130 2 58 1 153 139 92 57 37 359 5 3 272 291 353 44 302 334 314 196 307 263 91 352 3 328 61 120 78 336 29 23
339 3 19 32 36 97 119 84 14 7 96 132 133 119 82 96 154 44 18 31 352 347 75 186 326 319 339 317 29 10 73 310 333 343 342 338 355 26 359 325 120 126 143 167 45 221 94
330 29 30 51 59 104 99 51 24 56 104 125 108 127 132 108 126 116 137 121 336 321 183 115 321 265 294 353 29 360 331 64 313 98 351 316 355 218 43 344 294 144 163 316 172 138 133
325 59 56 98 73 116 101 67 63 79 54 100 95 115 121 111 135 110 108 134 190 178 109 91 288 24 15 316 6 4 261 152 33 268 350 312 179 238 195 232 51 186 94 154 151 86 235